KKS-1 (KISEKI)

Last updated on Fri Jul 10 2026 00:03:18 GMT+0000 (Coordinated Universal Time)

1 33499U 09002H 26190.25017924 .00000934 00000+0 12122-3 0 9993 2 33499 98.1179 113.0421 0006958 209.8459 150.2358 14.83180307939462
UTC large
Height (km)
Speed (km/s)
/
Latitude / Longitude
Inclination (degrees)
Orbital Period (minutes)
Azimuth
Elevation
Range (km)
Doppler Factor

Next 0 passes for location: London (51.5072 / 0.1276)

No passes found over London.
KKS-1 (KISEKI)